Wind_Speed
4 1 4 5 3 2 1 2 2 3 4 7 9 9 10 12 15 16 17 18 19 20 21 20 19 17 16 15 12 10 9 10
2 2 2 2 2 2 4 3 3 4 6 7 9 10 12 15 16 17 17 16 18 20 19 19 21 21 19 17 15 12 9 7
2 1 3 4 5 3 4 4 4 5 6 7 8 10 14 18 19 20 19 18 20 21 19 17 18 19 21 20 18 15 13 9
2 5 6 5 4 3 4 3 3 2 4 7 9 13 16 19 23 23 22 23 23 23 21 20 21 21 21 20 22 23 20 15
7 6 6 5 4 2 2 3 2 5 9 10 13 17 18 21 23 26 27 26 25 25 22 21 24 26 24 22 24 27 26 23
6 5 3 6 2 2 5 6 7 10 14 18 19 22 21 22 22 27 30 28 27 26 24 25 27 29 28 27 29 29 28 26
3 6 3 9 7 9 11 12 13 14 17 21 23 25 25 22 26 31 31 30 30 30 31 37 38 36 34 32 29 30 30 30
9 8 5 7 12 10 15 13 16 17 21 21 24 27 26 26 33 33 34 34 35 39 40 42 43 39 37 34 32 33 34 34
6 9 8 12 16 17 14 14 18 19 19 18 23 24 25 31 37 39 40 37 37 42 47 43 38 39 37 36 34 35 35 36
14 16 16 13 17 16 17 16 18 16 17 20 24 26 29 32 37 38 38 36 40 46 43 40 41 42 40 37 35 36 38 39
20 22 22 15 14 11 21 19 15 14 20 25 28 31 33 35 32 34 39 42 52 48 47 48 48 45 42 40 38 37 39 40
21 21 22 20 12 27 14 15 15 20 26 30 31 31 34 36 36 40 45 50 51 51 51 50 47 47 45 43 40 40 40 42
19 21 23 23 18 17 13 15 23 26 30 30 32 34 35 41 41 47 48 50 53 53 49 45 44 46 49 50 47 44 44 45
17 21 20 14 15 14 19 23 26 28 30 30 33 37 39 42 44 46 51 52 52 49 46 46 46 49 52 55 57 54 49 48
17 13 11 14 16 19 21 22 24 26 29 31 35 38 42 44 48 53 53 51 49 48 46 47 49 49 50 51 53 54 55 51
13 11 13 15 15 15 17 20 24 28 32 36 40 43 46 49 53 51 55 48 41 44 45 46 46 46 45 45 48 52 56 60
19 18 17 15 20 24 27 32 37 39 42 45 47 49 53 58 46 51 46 42 42 39 42 46 49 51 52 52 51 53 57 60
14 17 21 28 32 34 39 42 45 48 51 53 52 54 51 50 44 52 58 47 42 44 45 46 47 48 47 50 55 56 55 55
18 25 28 33 36 41 45 48 48 50 53 51 49 46 54 57 48 51 50 53 48 48 51 44 43 44 46 49 47 51 51 48
23 30 34 34 38 43 47 47 49 49 46 48 51 51 49 50 44 40 48 33 42 46 44 44 43 45 42 42 40 39 40 41
Wind_Direction
155 205 295 287 241 168 177 39 38 29 5 9 18 12 10 3 0 2 358 358 358 358 355 356 357 357 355 353 353 339 319 304
194 277 264 183 100 69 56 49 44 40 37 28 18 11 359 359 358 351 349 354 353 349 346 348 349 347 346 345 349 348 345 323
247 191 138 89 85 79 90 84 77 60 37 12 1 354 354 351 345 345 343 342 345 343 336 334 336 338 336 335 336 335 331 327
133 115 104 101 77 63 87 68 46 46 3 348 342 334 338 340 345 341 338 336 332 333 325 325 327 326 324 326 328 327 322 318
130 125 104 102 80 22 0 337 330 331 330 331 325 324 326 330 334 338 334 329 326 328 321 316 319 318 314 310 317 317 312 308
144 142 126 47 7 282 294 300 303 317 315 317 316 316 318 322 326 332 333 329 324 323 321 313 313 314 311 305 303 302 304 299
104 21 3 23 18 326 303 292 296 300 303 308 317 317 317 322 326 328 325 322 320 320 318 320 317 312 306 299 298 294 292 293
6 327 326 318 343 312 316 297 293 303 307 312 317 312 315 319 321 321 318 317 320 321 320 318 315 309 308 300 288 287 285 283
316 298 303 269 294 308 296 294 295 297 299 307 309 306 304 311 315 316 315 313 313 314 312 308 303 303 303 301 290 285 280 276
266 262 244 232 297 290 301 299 299 302 298 306 308 301 300 306 310 310 308 304 303 304 306 300 301 302 298 294 287 288 283 277
260 248 277 292 284 292 301 297 301 305 305 305 305 305 302 298 294 294 294 293 301 303 302 301 303 300 295 292 286 279 276 274
260 271 281 282 266 309 287 289 299 292 298 300 298 292 290 281 296 291 290 297 301 300 300 299 297 293 292 290 287 284 278 275
263 273 275 286 300 314 281 285 291 292 291 292 297 289 293 296 290 297 299 298 298 297 296 293 293 293 297 295 289 283 278 273
268 273 287 305 320 307 295 293 296 303 302 291 290 291 290 293 293 293 298 301 301 296 294 295 296 298 298 297 294 289 282 279
271 278 317 320 306 297 299 301 298 297 298 295 292 292 291 293 295 298 298 304 305 300 300 301 298 294 290 291 293 291 290 284
292 295 293 296 295 299 293 296 296 297 296 295 295 294 296 298 303 296 306 300 298 303 302 299 296 294 292 292 294 296 297 294
292 287 285 300 298 297 296 304 311 311 308 308 307 305 307 309 312 303 296 291 303 299 297 296 296 295 296 298 300 302 300 294
317 312 304 300 305 314 319 316 315 314 312 310 308 305 306 299 298 293 292 304 296 299 309 309 303 300 303 304 301 297 291 289
318 319 317 320 324 322 318 311 309 311 309 305 301 296 303 299 303 304 304 302 313 316 313 312 306 304 303 305 300 288 286 286
313 320 322 318 313 314 314 309 309 309 302 296 298 302 303 303 305 308 310 285 311 307 299 302 304 305 305 303 297 292 290 289
Height
3175 3177 3178 3178 3178 3178 3178 3178 3179 3179 3179 3179 3178 3178 3178 3177 3175 3173 3171 3168 3168 3164 3162 3160 3158 3156 3154 3151 3150 3148 3147 3146
3175 3177 3177 3177 3178 3178 3178 3178 3179 3179 3178 3178 3177 3178 3178 3176 3175 3172 3170 3168 3167 3165 3162 3159 3157 3155 3152 3151 3149 3147 3145 3144
3175 3175 3176 3176 3177 3177 3178 3179 3178 3177 3177 3177 3177 3177 3177 3175 3174 3172 3170 3167 3166 3164 3162 3160 3157 3155 3152 3149 3148 3147 3144 3143
3174 3175 3175 3176 3176 3177 3178 3178 3179 3178 3177 3177 3177 3176 3175 3174 3173 3171 3168 3166 3165 3162 3160 3158 3156 3155 3152 3149 3146 3144 3143 3141
3175 3174 3175 3176 3176 3176 3177 3178 3177 3177 3178 3176 3175 3174 3171 3171 3169 3168 3166 3165 3163 3160 3158 3156 3154 3151 3149 3147 3144 3142 3140 3138
3173 3173 3174 3175 3176 3175 3176 3176 3176 3175 3175 3174 3173 3172 3170 3168 3165 3164 3163 3162 3159 3156 3154 3153 3151 3148 3146 3145 3142 3138 3136 3134
3173 3173 3173 3174 3175 3175 3176 3175 3175 3174 3171 3171 3170 3169 3166 3163 3161 3159 3158 3156 3154 3152 3149 3147 3144 3142 3140 3138 3136 3133 3131 3128
3172 3173 3172 3173 3172 3172 3173 3172 3172 3171 3169 3168 3165 3164 3161 3159 3156 3154 3152 3151 3148 3146 3142 3139 3136 3133 3132 3130 3129 3127 3125 3122
3172 3173 3173 3173 3174 3172 3170 3169 3168 3168 3166 3165 3162 3161 3159 3156 3153 3151 3147 3145 3142 3139 3136 3133 3131 3128 3125 3123 3120 3119 3118 3115
3171 3168 3166 3168 3169 3167 3167 3164 3163 3163 3161 3160 3158 3156 3154 3151 3148 3144 3141 3139 3136 3132 3129 3126 3123 3120 3118 3116 3113 3111 3109 3105
3168 3164 3163 3161 3165 3164 3165 3161 3159 3158 3157 3155 3155 3152 3149 3146 3142 3139 3136 3132 3128 3124 3121 3115 3111 3109 3106 3104 3103 3102 3100 3095
3167 3165 3163 3161 3163 3162 3161 3159 3158 3156 3155 3153 3150 3147 3144 3140 3136 3132 3128 3124 3119 3115 3110 3107 3103 3097 3095 3093 3093 3092 3090 3086
3165 3162 3160 3161 3161 3158 3157 3156 3154 3153 3150 3147 3145 3142 3136 3133 3128 3124 3119 3114 3109 3104 3099 3095 3093 3087 3083 3082 3082 3081 3079 3076
3164 3161 3159 3158 3157 3156 3154 3152 3150 3147 3145 3143 3139 3135 3130 3126 3121 3116 3110 3104 3099 3093 3088 3085 3082 3077 3072 3068 3062 3065 3065 3062
3160 3158 3157 3155 3154 3153 3151 3148 3146 3143 3139 3136 3132 3127 3121 3117 3112 3106 3099 3093 3087 3083 3079 3075 3071 3069 3065 3059 3051 3046 3041 3046
3157 3157 3155 3153 3151 3149 3147 3145 3142 3139 3135 3130 3124 3117 3111 3106 3100 3093 3087 3081 3077 3074 3068 3063 3059 3055 3054 3051 3046 3038 3030 3023
3155 3153 3151 3149 3148 3145 3142 3138 3135 3130 3124 3118 3112 3105 3101 3094 3088 3083 3077 3072 3067 3063 3059 3054 3049 3044 3039 3035 3032 3028 3022 3015
3152 3151 3149 3146 3142 3138 3134 3129 3123 3118 3112 3107 3100 3094 3090 3085 3079 3074 3068 3061 3057 3052 3048 3042 3038 3033 3028 3024 3018 3013 3008 3002
3148 3146 3143 3139 3135 3131 3127 3121 3115 3109 3103 3096 3090 3085 3079 3074 3068 3061 3055 3049 3043 3038 3034 3030 3026 3023 3017 3013 3006 3001 2996 2992
3143 3140 3135 3131 3127 3122 3117 3111 3105 3099 3093 3085 3079 3074 3069 3063 3057 3051 3046 3039 3034 3029 3024 3019 3014 3009 3003 2997 2993 2990 2986 2982